Regional Weather Roundup
Issued by NWS Cleveland, OH

Home | Current Version | Previous Version | Graphics & Text | Print | Product List | Glossary On
Versions: 1 2 3 4 5 6 7 8 9 10 11 12 13 14 15 16 17 18 19 20 21 22 23 24 25 26 27 28 29 30 31 32 33 34 35 36 37 38 39 40 41 42 43 44 45 46 47 48 49 50
000
ASUS41 KCLE 261910
RWRCLE
OHIO REGIONAL WEATHER ROUNDUP
NATIONAL WEATHER SERVICE CLEVELAND, OH
200 PM EST FRI DEC 26 2014

NOTE: "FAIR" INDICATES FEW OR NO CLOUDS BELOW 12,000 FEET WITH NO
SIGNIFICANT WEATHER AND/OR OBSTRUCTIONS TO VISIBILITY.

OHZ001>008-015>018-024>027-034-035-043-044-262000-
   NORTHWEST OHIO

CITY           SKY/WX    TMP DP  RH WIND       PRES   REMARKS
DEFIANCE       FAIR      47  38  71 SW15      30.10F
FINDLAY        FAIR      49  38  65 SW18      30.11F
TOLEDO EXPRESS FAIR      46  36  68 SW14      30.09F
TOLEDO EXEC    FAIR      48  36  63 SW18      30.10F
LIMA           FAIR      48  38  68 SW14G22   30.12F
$$

OHZ009>014-019>023-028>033-038-089-262000-
   NORTHEAST OHIO

CITY           SKY/WX    TMP DP  RH WIND       PRES   REMARKS
CLE-HOPKINS    FAIR      48  35  60 SW14G21   30.15F
CLE-LAKEFRONT  FAIR      50  34  54 S15       30.12F
CUY CO. ARPT   PTSUNNY   50  36  57 W16       30.13F
LORAIN-ELYRIA  FAIR      48  37  65 SW13      30.12F
ASHTABULA      FAIR      47  34  60 S12       30.14F
AKRON-CANTON   FAIR      49  35  58 S12G20    30.14F
WOOSTER        FAIR      47  37  68 S13G21    30.14F
MANSFIELD      FAIR      48  36  63 SW17G25   30.13F
YOUNGSTOWN     FAIR      47  33  58 SW13      30.15F
$$

OHZ042-051>053-060>062-070>072-077>081-262000-
  SOUTHWEST OHIO

CITY           SKY/WX    TMP DP  RH WIND       PRES   REMARKS
CINC-COVINGTON FAIR      51  35  54 SW12G21   30.18F
CINC-LUNKEN    FAIR      52  38  58 S15       30.20F
HAMILTON       FAIR      54  37  52 SW8       30.19F
DAYTON         PTSUNNY   50  38  63 SW13      30.16F
WRIGHT-PAT AFB FAIR      50  37  60 S12       30.16F
DAYTON GENERAL FAIR      48  37  65 S8G18     30.16F
WILMINGTON     FAIR      48  37  65 S12       30.17F
$$

OHZ036-037-039>041-045>050-054>059-063>069-073>076-082>088-262000-
  CENTRAL AND SOUTHEAST OHIO

CITY           SKY/WX    TMP DP  RH WIND       PRES   REMARKS
COLUMBUS       PTSUNNY   46  36  68 S8        30.18F
OSU AIRPORT    FAIR      47  37  68 S10       30.17F
BOLTON FIELD   PTSUNNY   48  39  71 MISG      30.18F
RICKENBACK AFB FAIR      47  37  68 S9        30.18F
NEWARK         FAIR      48  36  63 SW9       30.18F
MARION         FAIR      48  37  65 SW16      30.14F
LANCASTER      FAIR      50  36  58 S15       30.20F
ZANESVILLE     FAIR      47  33  58 SW8       30.20F
NEW PHILLY     FAIR      50  35  56 S7        30.18F
$$



USA.gov is the U.S. government's official web portal to all federal, state and local government web resources and services.